RH
47 52 49 43 39 36 35 31 29 28 25 22 22 22 22 22 22 22 22 23 19 19 20 21 20 19 17 17 18 19 24 29 33 32 36 58 44 53 48 62 64 63 68 73 71
41 44 48 53 51 47 43 40 37 35 35 33 28 27 26 25 24 23 23 22 21 21 21 22 21 20 20 21 19 20 33 33 33 34 36 39 43 53 51 53 69 62 61 71 75
35 38 42 43 46 50 51 50 46 44 42 41 37 33 30 28 28 28 23 23 23 22 23 22 20 19 22 25 25 29 31 36 34 40 40 41 44 50 51 57 83 67 59 63 74
26 32 36 39 42 42 44 48 47 47 47 44 42 37 33 30 31 30 25 26 26 24 23 22 19 18 22 30 30 24 27 34 38 37 36 40 43 45 57 61 58 61 56 55 66
25 27 31 35 38 40 42 42 41 41 44 44 45 45 36 36 33 31 28 28 28 25 23 22 18 18 23 28 28 26 28 38 37 39 42 39 39 50 55 55 54 52 52 58 64
31 27 27 30 31 35 37 40 41 38 40 41 43 48 43 38 35 33 29 28 30 26 23 22 18 21 24 26 28 37 32 34 39 34 37 39 53 47 64 56 56 52 57 69 76
37 32 31 30 31 31 33 32 36 36 38 40 42 47 48 36 38 38 32 30 32 27 25 21 21 23 27 25 27 27 33 38 41 46 38 39 52 65 62 53 51 49 61 74 77
36 36 32 31 31 30 30 30 31 33 33 39 42 50 50 40 39 38 34 30 32 28 25 24 21 24 26 27 25 28 32 39 47 49 43 39 58 73 56 49 46 48 52 61 65
33 33 32 30 30 30 30 29 30 33 35 37 42 46 46 43 37 36 36 32 32 28 25 24 23 24 30 26 28 34 36 46 47 45 47 47 64 78 47 46 52 46 48 57 56
22 27 30 29 27 27 28 31 32 32 38 38 43 49 42 40 41 38 36 33 36 31 27 26 26 28 33 37 39 39 33 38 33 50 39 47 42 60 48 42 56 50 46 57 50
24 21 23 27 24 24 25 35 46 55 53 39 40 39 45 48 41 38 36 35 35 34 30 28 30 32 47 46 34 35 38 35 42 45 37 48 52 51 57 44 50 48 46 49 50
28 26 21 21 24 22 25 32 44 42 36 41 39 36 41 49 48 45 36 35 34 34 32 39 33 34 40 33 32 32 42 39 42 36 35 47 47 49 49 47 49 49 45 41 51
26 28 26 23 20 16 26 29 40 42 43 34 34 31 35 40 45 45 43 37 36 33 35 35 38 36 36 35 35 38 46 51 46 55 35 39 39 45 42 44 42 46 50 42 43
26 33 28 28 19 18 26 23 36 39 40 30 41 34 35 36 39 39 37 34 38 35 36 33 37 31 34 39 44 53 43 40 40 41 46 54 52 53 44 35 38 40 40 35 37
28 37 35 29 31 29 37 30 31 41 31 31 40 40 38 39 37 38 43 32 35 35 37 33 30 34 34 42 43 47 54 41 42 52 50 48 40 52 34 30 39 36 41 41 39
29 37 41 33 30 27 39 31 36 41 34 31 39 38 42 43 45 44 41 32 40 37 34 34 32 32 33 38 40 45 44 43 45 49 56 49 44 50 45 37 36 37 36 42 44
34 37 44 40 30 34 39 42 45 35 25 27 39 39 42 45 51 50 47 40 44 36 35 32 37 32 35 36 39 41 45 53 58 69 51 55 39 44 46 40 34 36 34 41 46
45 40 45 42 32 42 47 54 43 20 24 35 39 45 41 41 46 51 53 50 41 30 37 33 40 32 32 31 46 47 46 56 67 61 68 42 35 42 39 35 33 33 32 32 36
60 52 45 49 37 46 65 66 25 21 22 24 38 47 44 42 42 51 51 45 33 30 35 36 36 38 38 32 38 52 47 55 61 48 47 41 39 32 33 30 31 33 33 40 40
78 64 49 55 49 50 71 60 23 18 20 29 32 38 44 37 41 54 47 48 40 31 28 38 46 38 39 36 34 50 52 51 47 61 57 43 39 40 41 40 30 33 35 36 41
95 81 59 68 64 63 67 39 39 25 28 33 37 31 45 46 39 47 46 46 44 31 33 38 40 48 43 35 38 39 51 50 60 61 59 49 41 46 34 35 35 35 34 37 38
98 84 74 75 78 62 44 37 42 32 35 45 49 34 51 50 41 48 49 46 38 32 33 35 39 53 43 35 35 54 45 52 55 50 50 49 45 45 39 39 40 35 34 35 37
91 93 92 85 76 58 28 27 43 53 39 52 51 43 48 48 51 42 52 43 38 35 37 36 42 46 49 45 38 40 49 53 54 51 59 62 48 51 43 35 37 37 40 36 33
97 94 98 93 64 46 34 31 39 45 48 54 54 52 44 41 48 45 42 49 39 33 36 38 40 42 43 44 42 39 40 47 52 56 49 48 45 47 46 47 47 47 40 37 32
98 87 78 75 67 49 48 38 29 35 47 54 58 52 48 42 51 57 47 54 44 36 40 41 42 40 39 44 44 44 43 42 47 49 50 44 45 41 45 45 49 53 47 35 33
94 77 74 72 76 60 54 50 47 30 39 60 58 55 54 48 50 67 58 57 53 39 38 41 48 42 42 41 45 44 42 42 39 41 36 37 40 41 45 43 40 38 40 43 41
92 75 79 82 82 74 55 47 49 40 40 52 55 61 61 63 59 62 66 59 67 60 41 47 50 48 46 42 45 47 36 36 37 40 39 38 38 44 47 48 42 35 33 41 46